Погода Готня

Погода Готня : погода сейчас, прогноз погоды и архив. Всё, что Вы хотите узнать о погоде Готня!

Поиск расширенной информации на нашем сайте:

Другие новости

Новости СМИ2

Главная страница сайта

Новости сайта

03.07.2017

Напоминаем, что на нашем специализированном сайте Метеоцентр.Азия вы можете получить высокодетализированные автоматические прогнозы погоды по пунктам России, СНГ и мира в авиационном формате (включающие направление и скорость ветра, видимость, явления погоды, количество и форму облачности, нижнюю и верхнюю границу облачности).

Рекомендуем: Смотрите надежная летняя резина на продажу закажите.

Погода Готня - сегодня

Время (UTC), дата Ветер
(°,м/с) 
Видим.   Явления Облачность Т
(°С)
Тd
(°С)
f(%) Тe
(°С)
Pmin
(гПа)
dP
(гПа)
Po
(мм)
O2
(г/м3)
Тmin Tmax R s Состояние
почвы
03 15.08.17 040 (СВ) 20000 м    8/0 верхняя 
[Ci ing]
+17 +14 82 +25  1018  0.7  744  279  +16.8         
06 15.08.17 040 (СВ) 20000 м    8/0 средняя, верхняя 
[Ac trans|Ci ing]
+21.9 +15 65 +31  1018.3  0.8  744  274  +16.8         
09 15.08.17 060 (СВ) 20000 м    8/0 средняя, верхняя 
[Ac trans|Ci ing]
+27.5 +15.2 47 +37  1018.1  0.3  744  269           
12 15.08.17 060 (СВ) 20000 м    6/3 600 м верхняя 
[Cu med, cong|Ci fib]
+29.9 +12.4 34 +35  1017.7  -0.2  744  268           
15 15.08.17 040 (СВ) 20000 м    8/4 600 м кучево-дожд., средняя 
[Cb calv|Ac trans]
+27.3 +13.4 42 +34  1018.1  0.1  744  270           
21 15.08.17 060 (СВ) 10 км    ясно 
+21.4 +16.8 75 +34  1020.5  0.3  746  275           
00 16.08.17 050 (СВ) 10 км    ясно 
+19.2 +16.9 87 +32  1021.2  0.4  746  277           
03 16.08.17 050 (СВ) 20000 м    ясно 
+17.9 +16.2 90 +29  1021.7  0.4  746  279  +17.7         
06 16.08.17 050 (СВ) 20000 м    ясно 
+21.8 +17.3 76 +35  1021.7  0.4  747  275  +17.7         
09 16.08.17 050 (СВ) 20000 м    3/3 1000 м 
[Cu hum]
+26 +15.5 52 +36  1021.3  -0.1  747  271           
12 16.08.17 060 (СВ) 20000 м    6/6 600 м 
[Cu med, cong]
+27.9 +14.9 45 +37  1020.5  -0.6  746  270           
15 16.08.17 050 (СВ) 20000 м    4/4 600 м 
[Cu med, cong]
+27.6 +11.7 37 +31  1020.2  -0.4  746  271           
18 16.08.17 040 (СВ) 10 км    ясно 
+21.5 +13.3 60 +27  1021  0.3  746  276    +28.4       
21 16.08.17 050 (СВ) 10 км    ясно 
+18.9 +15 78 +29  1021.3  0.1  746  278           
00 17.08.17 070 (В) 10 км    ясно 
+17.6 +14.3 81 +27  1021.2  -0.3  746  279           
03 17.08.17 060 (СВ) 20000 м    3/3 600 м 
[Cu hum]
+16.2 +13.1 82 +23  1021.5  0.2  746  281  +16         
06 17.08.17 080 (В) 20000 м    ясно 
+22.9 +13.6 56 +29  1021.4  0.6  747  275  +16         
09 17.08.17 070 (В) 20000 м    3/0 верхняя 
[Ci ing]
+28 +9.5 31 +29  1020.9  -0.1  746  271           
12 17.08.17 070 (В) 20000 м    4/4 1000 м 
[Cu hum]
+29.2 +7.7 26 +29  1020  -0.8  746  270           
15 17.08.17 070 (В) 20000 м    3/3 1000 м 
[Cu hum]
+28.2 +8 28 +28  1019.6  -0.5  746  271           
18 17.08.17 040 (СВ) 10 км    ясно 
+20.3 +12.3 60 +25  1020.7  0.4  746  277    +29.8       
21 17.08.17 050 (СВ) 10 км    ясно 
+19.5 +12 62 +24  1020.7  -0.1  746  278           
00 18.08.17 060 (СВ) 10 км    ясно 
+17.8 +12 69 +22  1020.7  -0.1  746  280           
03 18.08.17 040 (СВ) 20000 м    4/0 средняя 
[Ac trans]
+17.1 +11.7 71 +22  1020.7  -0.1  746  280  +16.7         
06 18.08.17 080 (В) 20000 м    6/6 600 м 
[Cu med, cong]
+21.3 +12.1 56 +25  1020.9  0.6  746  277  +16.7         
Время (UTC), дата Ветер
(°,м/с) 
Видим.   Явления Облачность Т
(°С)
Тd
(°С)
f(%) Тe
(°С)
Pmin
(гПа)
dP
(гПа)
Po
(мм)
O2
(г/м3)
Тmin Tmax R s Состояние
почвы

Для получения пояснительной информации подведите курсор к названию столбца.

ПОГОДА Готня - архив

Всё, что Вы хотите узнать о погоде Готня - удобно и подробно!

Выберите нужную дату (начиная с 1 января 2015* года) и нажмите кнопку "Найти".
Будут отображены архивные сводки погоды по пункту Готня, начиная с указанной даты.


Отображать данные в формате CSV (для использования в таблицах Excel)


Внимание! Наш архив погоды предназначен исключительно для личного некоммерческого использования в познавательных целях. Если Вам необходимы официальные справки о состоянии погоды (для производственных, юридических, коммерческих и т.п. целей), обращайтесь в органы Росгидромета.

*Примечание: данная дата относится к архиву по метеостанциям СССР (Россия, СНГ, Балтия).
Архив по метеостанциям Зарубежной Европы и Азии (кроме Китая) хранится 10 дней, по другим регионам земного шара (Китай, Африка, Америка, Австралия, Океания) - 1 день.

Готня - район местоположения метеостанции


Название, широта, долгота, высота метеостанции:
Готня 50.8°ш. 35.8°д. 226 м над ур. моря [Российская Федерация]

Дополнительная информация

В oтличие oт бoльшинства пoгoдных сайтoв мы публикуем пoдрoбную метеoинфoрмацию в детальнoм прoфессиoнальнoм фoрмате.

Характеристики температуры и влажнoсти вoздуха измеряются на высoте 2 м в тени вдали oт зданий и деревьев.
Скoрoсть ветра измеряется на высoте 10 м (на урoвне рoста челoвека скoрoсть ветра ниже в 1.5-2 раза). Если метеoстанция нахoдится в гoрoде или в лесу, тo скoрoсть ветра занижена на 2-4 м/с пo сравнению с oткрытым местoм. Скoрoсть ветра над акватoриями крупных рек и oзёр, а также на вершинах хoлмoв на 2-5 м/с выше, чем в oбычных услoвиях.
Атмoсфернoе давление в разных тoчках местнoсти мoжет значительнo oтличаться oт давления на метеoстанции, в зависимoсти oт услoвий рельефа (при пoдъёме на 10 м давление пoнижается примернo на 1 мм рт.ст.).